GAOFEN 12 (02)

导读

GAOFEN 12 (02)即高分十二号02星,是中国于2021年3月31日在酒泉卫星发射中心,通过长征四号丙运载火箭成功发射的高分辨率对地观测卫星,卫星顺利进入预定轨道。该卫星主要服务于国土普查、城市规划、土地确权、路网设计、农作物估产和防灾减灾等民生与发展领域,将为中国国民经济建设提供高精度空间信息支撑。本次发射也是长征系列运载火箭的第364次航天飞行。

Basic Information
目录编号:
48079
目录名称:
GAOFEN 12 (02)
国际标识:
2021-026A
轨道中心:
EARTH
卫星名称:
GAOFEN 12 (02)
卫星全名:
--
卫星状态:
在轨 (已飞行1991 天)
发射日期:
2021-03-30 UTC
国别 :
中国 (CN)
星等 :
--
Orbit Information
数据来源 国际轨道数据
星历时间: 2026-09-11T01:34:13+0800
9小时前
查看轨道信息
半长轴: 7006.351km
偏心率: 0.0004026
轨道倾角: 97.999°
近地点辐角 334.343°
升交点赤经 251.592°
平近点角 25.758°
近地点: 625.393km
远地点: 631.035km
周期: 97.274分钟
每日圈数: 14.803519
Detailed Information
使用方式:
暂无
2D Orbit Map
3D Orbit Map
Orbit Altitude Analysis Chart
Orbit Inclination Analysis Chart
Orbit Comprehensive Analysis Chart
View Comprehensive Chart
Conjunction Data List
Event ID Objects TCA Miss Dist (km) Collision Risk Probability Collision Risk Index (CRI) Action
CDM_260904-011104-807906-452525
2026-09-04T
01:11:33+0000
0.694 km
远距离
6.694746E-5 中风险 0.72
CDM_260912-162504-807906-514422
2026-09-12T
16:25:39+0000
2.014 km
极远距离
2.710023E-6 低风险 0.44
CDM_260911-041304-807906-886722
2026-09-11T
04:13:58+0000
2.167 km
极远距离
1.446222E-6 低风险 0.38
CDM_260912-113204-807906-893924
2026-09-12T
11:32:53+0000
2.834 km
极远距离
1.382064E-6 低风险 0.38
Miss Distance Evolution Trend with All Objects
Collision Probability Evolution Trend with All Objects